| time (UTC) | temp F | wind direction | speed MPH | gust MPH | rain 1hr in | rain 24hr in | rain mn in | humidity % | barometer mb |
| 20260504150536 | 67 | 315 | 1.0 | 5.0 | 0.00 | 0.00 | 0.00 | 43 | 1015.3 |
| 20260504140516 | 63 | 203 | 1.0 | 6.0 | 0.00 | 0.00 | 0.00 | 50 | 1015.5 |
| 20260504130515 | 56 | 0.0 | 0.0 | 0.00 | 0.00 | 0.00 | 57 | 1015.7 | |
| 20260504110516 | 44 | 0.0 | 0.0 | 0.00 | 0.00 | 0.00 | 29 | 1016.5 | |
| 20260504100515 | 44 | 0.0 | 0.0 | 0.00 | 0.00 | 0.00 | 39 | 1016.3 | |
| 20260504081515 | 45 | 0.0 | 0.0 | 0.00 | 0.00 | 0.00 | 34 | 1016.7 | |
| 20260504080535 | 45 | 0.0 | 0.0 | 0.00 | 0.00 | 0.00 | 34 | 1016.6 | |
| 20260504080111 | 45 | 0.0 | 0.0 | 0.00 | 0.00 | 0.00 | 31 | 1016.6 | |
| 20260504050516 | 42 | 0.0 | 0.0 | 0.00 | 0.00 | 0.00 | 54 | 1017.0 | |
| 20260504045516 | 42 | 0.0 | 0.0 | 0.00 | 0.00 | 0.00 | 53 | 1017.0 | |
| 20260504044516 | 41 | 0.0 | 0.0 | 0.00 | 0.00 | 0.00 | 58 | 1017.1 | |
| 20260504043516 | 41 | 0.0 | 0.0 | 0.00 | 0.00 | 0.00 | 61 | 1017.1 | |
| 20260504042515 | 41 | 0.0 | 0.0 | 0.00 | 0.00 | 0.00 | 60 | 1017.0 | |
| 20260504041516 | 41 | 0.0 | 0.0 | 0.00 | 0.00 | 0.00 | 61 | 1017.0 | |
| 20260504040515 | 41 | 0.0 | 0.0 | 0.00 | 0.00 | 0.00 | 62 | 1016.8 | |
| 20260504035516 | 41 | 0.0 | 0.0 | 0.00 | 0.00 | 0.00 | 62 | 1016.9 | |
| 20260504034516 | 42 | 0.0 | 0.0 | 0.00 | 0.00 | 0.00 | 62 | 1016.9 | |
| 20260504033515 | 42 | 0.0 | 0.0 | 0.00 | 0.00 | 0.00 | 62 | 1017.0 | |
| 20260504032516 | 42 | 0.0 | 0.0 | 0.00 | 0.00 | 0.00 | 62 | 1017.0 | |
| 20260504031516 | 42 | 0.0 | 0.0 | 0.00 | 0.00 | 0.00 | 63 | 1016.9 | |
| 20260504030515 | 42 | 0.0 | 0.0 | 0.00 | 0.00 | 0.00 | 62 | 1016.9 | |
| 20260504025516 | 42 | 0.0 | 0.0 | 0.00 | 0.00 | 0.00 | 62 | 1016.8 | |
| 20260504024516 | 43 | 0.0 | 0.0 | 0.00 | 0.00 | 0.00 | 62 | 1016.8 | |
| 20260504023516 | 43 | 0.0 | 0.0 | 0.00 | 0.00 | 0.00 | 61 | 1016.8 | |
| 20260504022536 | 43 | 0.0 | 0.0 | 0.00 | 0.00 | 0.00 | 61 | 1016.7 | |
| 20260504021516 | 44 | 0.0 | 0.0 | 0.00 | 0.00 | 0.00 | 62 | 1016.5 | |
| 20260504020516 | 44 | 0.0 | 0.0 | 0.00 | 0.00 | 0.00 | 62 | 1016.5 | |
| 20260504015516 | 44 | 0.0 | 0.0 | 0.00 | 0.00 | 0.00 | 63 | 1016.3 | |
| 20260504014516 | 45 | 0.0 | 0.0 | 0.00 | 0.00 | 0.00 | 63 | 1016.2 | |
| 20260504013515 | 45 | 0.0 | 0.0 | 0.00 | 0.00 | 0.00 | 63 | 1016.2 | |
| 20260504012535 | 46 | 0.0 | 0.0 | 0.00 | 0.00 | 0.00 | 63 | 1015.9 | |
| 20260504011515 | 46 | 0.0 | 0.0 | 0.00 | 0.00 | 0.00 | 63 | 1015.9 | |
| 20260504010516 | 47 | 0.0 | 0.0 | 0.00 | 0.00 | 0.00 | 63 | 1015.9 | |
| 20260504005515 | 48 | 0.0 | 0.0 | 0.00 | 0.00 | 0.00 | 62 | 1015.9 | |
| 20260504004515 | 49 | 0.0 | 0.0 | 0.00 | 0.00 | 0.00 | 61 | 1015.8 | |
| 20260504003516 | 50 | 0.0 | 0.0 | 0.00 | 0.00 | 0.00 | 60 | 1015.7 | |
| 20260504002515 | 51 | 0.0 | 0.0 | 0.00 | 0.00 | 0.00 | 57 | 1015.7 | |
| 20260504001515 | 52 | 0.0 | 0.0 | 0.00 | 0.00 | 0.00 | 51 | 1015.7 | |
| 20260504000515 | 53 | 0.0 | 0.0 | 0.00 | 0.00 | 0.00 | 52 | 1015.7 | |
| 20260503235555 | 54 | 0.0 | 0.0 | 0.00 | 0.00 | 0.00 | 54 | 1015.6 | |
| 20260503234515 | 55 | 0.0 | 0.0 | 0.00 | 0.00 | 0.00 | 47 | 1015.6 | |
| 20260503233515 | 56 | 0.0 | 0.0 | 0.00 | 0.00 | 0.00 | 45 | 1015.5 | |
| 20260503232515 | 57 | 0.0 | 0.0 | 0.00 | 0.00 | 0.00 | 41 | 1015.5 | |
| 20260503231536 | 58 | 0.0 | 0.0 | 0.00 | 0.00 | 0.00 | 40 | 1015.4 | |
| 20260503230555 | 59 | 0.0 | 0.0 | 0.00 | 0.00 | 0.00 | 43 | 1015.3 | |
| 20260503225535 | 60 | 0.0 | 0.0 | 0.00 | 0.00 | 0.00 | 41 | 1015.3 | |
| 20260503224535 | 60 | 0.0 | 0.0 | 0.00 | 0.00 | 0.00 | 35 | 1015.3 | |
| 20260503223515 | 60 | 0.0 | 7.0 | 0.00 | 0.00 | 0.00 | 38 | 1015.3 | |
| 20260503222515 | 61 | 315 | 1.0 | 9.0 | 0.00 | 0.00 | 0.00 | 31 | 1015.4 |
| 20260503221515 | 61 | 293 | 1.0 | 8.0 | 0.00 | 0.00 | 0.00 | 32 | 1015.4 |
| 20260503220535 | 61 | 338 | 1.0 | 11.0 | 0.00 | 0.00 | 0.00 | 32 | 1015.4 |
| 20260503215515 | 61 | 315 | 1.0 | 5.0 | 0.00 | 0.00 | 0.00 | 31 | 1015.5 |
| 20260503214515 | 61 | 0.0 | 4.0 | 0.00 | 0.00 | 0.00 | 32 | 1015.5 | |
| 20260503213555 | 61 | 203 | 1.0 | 6.0 | 0.00 | 0.00 | 0.00 | 32 | 1015.4 |
| 20260503212515 | 61 | 0.0 | 0.0 | 0.00 | 0.00 | 0.00 | 31 | 1015.7 | |
| 20260503211515 | 61 | 0.0 | 3.0 | 0.00 | 0.00 | 0.00 | 33 | 1015.7 | |
| 20260503210515 | 61 | 293 | 1.0 | 9.0 | 0.00 | 0.00 | 0.00 | 31 | 1015.7 |
| 20260503205515 | 61 | 68 | 1.0 | 8.0 | 0.00 | 0.00 | 0.00 | 30 | 1015.8 |
| 20260503204515 | 62 | 315 | 1.0 | 9.0 | 0.00 | 0.00 | 0.00 | 32 | 1015.7 |
| 20260503203515 | 61 | 0.0 | 0.0 | 0.00 | 0.00 | 0.00 | 30 | 1015.8 | |
| 20260503202535 | 62 | 338 | 2.0 | 10.0 | 0.00 | 0.00 | 0.00 | 29 | 1015.9 |
| 20260503201515 | 62 | 270 | 1.0 | 9.0 | 0.00 | 0.00 | 0.00 | 30 | 1015.9 |
| 20260503200515 | 62 | 0.0 | 1.0 | 0.00 | 0.00 | 0.00 | 32 | 1016.1 | |
| 20260503195515 | 62 | 45 | 1.0 | 5.0 | 0.00 | 0.00 | 0.00 | 33 | 1016.2 |
| 20260503194535 | 62 | 315 | 1.0 | 8.0 | 0.00 | 0.00 | 0.00 | 34 | 1016.4 |
| 20260503193520 | 62 | 248 | 2.0 | 9.0 | 0.00 | 0.00 | 0.00 | 32 | 1016.6 |
| 20260503192515 | 62 | 0.0 | 3.0 | 0.00 | 0.00 | 0.00 | 31 | 1016.7 | |
| 20260503191515 | 61 | 315 | 1.0 | 10.0 | 0.00 | 0.00 | 0.00 | 33 | 1017.0 |
| 20260503190515 | 60 | 293 | 1.0 | 4.0 | 0.00 | 0.00 | 0.00 | 34 | 1017.0 |
| 20260503185515 | 60 | 315 | 1.0 | 4.0 | 0.00 | 0.00 | 0.00 | 36 | 1017.3 |
| 20260503184515 | 60 | 23 | 1.0 | 4.0 | 0.00 | 0.00 | 0.00 | 41 | 1017.3 |
| 20260503183515 | 60 | 293 | 1.0 | 5.0 | 0.00 | 0.00 | 0.00 | 35 | 1017.3 |
| 20260503182535 | 60 | 248 | 2.0 | 9.0 | 0.00 | 0.00 | 0.00 | 39 | 1017.4 |
| 20260503181555 | 59 | 315 | 3.0 | 15.0 | 0.00 | 0.00 | 0.00 | 38 | 1017.4 |
| 20260503180515 | 59 | 248 | 1.0 | 5.0 | 0.00 | 0.00 | 0.00 | 37 | 1017.5 |
| 20260503175515 | 58 | 225 | 1.0 | 9.0 | 0.00 | 0.00 | 0.00 | 37 | 1017.5 |
| 20260503174515 | 58 | 315 | 2.0 | 12.0 | 0.00 | 0.00 | 0.00 | 37 | 1017.6 |
| 20260503173515 | 58 | 293 | 1.0 | 6.0 | 0.00 | 0.00 | 0.00 | 39 | 1017.9 |
| 20260503172515 | 57 | 293 | 3.0 | 16.0 | 0.00 | 0.00 | 0.00 | 38 | 1017.9 |
| 20260503171515 | 58 | 68 | 1.0 | 13.0 | 0.00 | 0.00 | 0.00 | 37 | 1018.0 |
| 20260503170515 | 57 | 315 | 2.0 | 9.0 | 0.00 | 0.00 | 0.00 | 39 | 1018.1 |